Location: Cosy Dell
(34.2789°N, 117.4537°W)
Time: 12:06:01
(UTC+00:00)

BREEZE-M DEB (TANK) - Pass Details

Date: 14 July 2020
Orbit: 332 x 16282 km, 49.4° (Epoch: 08 August)

Event Time Altitude Azimuth Distance (km) Brightness Sun altitude
Exits shadow 05:48:35 30° 355° (N) 851 3.7 -26.5°
Drops below altitude 10° 05:52:04 10° 42° (NE) 2,346 5.7 -26.9°
Sets 05:56:25 0° 51° (NE) 4,451 7.0 -27.3°
